DELTA 1 DEB, 10716

Orbit data source: Space-Track

DELTA 1 DEB, 10716 is space debris in SSO originally from a launch on Thu, 29 Jul 1976 UTC launched from the Air Force Western Test Range (AFWTR). Debris objects in space refer to the collection of defunct objects orbiting the Earth. Examples of debris include non-operational satellites, rocket bodies, and fragments generated from explosions, collisions, or faulty payload assembly.

Loading next visibility...
Identifier
10716, 1976-077AM
Orbit
SSO
Country
Flag of USUS
Related business
Manufacturer
Unknown
Mission
Spacecraft
Bus & Motor
Unknown
Mass
Unknown
Launch date (UTC)
1976-07-29 (50 years ago)
Launch vehicle
Unknown
Launch site
Air Force Western Test Range (AFWTR)
Object type
Payload
Rocket body
Debris
Shape & HBR
Unknown shape, 0.1 m
Radar Cross Section
Medium (>0.1 m² and <1 m²)

Expand to show TLE details & history
Last TLE update: 3 days ago

TLE from 3 days ago
0 DELTA 1 DEB
1 10716U 76077AM  26171.05241267  .00003486  00000-0  14427-1 0  9996
2 10716 102.7473  14.5481 0137228  89.0951  62.0341 12.82538988277162
Epoch: 2026-06-20T01:15Z
TLE epoch observation values (Epoch: 2026-06-20T01:15:28.454Z)
Latitude
26.77717°
Longitude
-86.07075°
Altitude
1,285.765 km
Speed
7.238 km/s
True Right ascension
13h 24m 16s
True Declination
26° 38' 55"
Sunlit
Object was in daylight at epoch
Visualization orbit readout
Latitude
Unknown
Longitude
Unknown
Altitude
Unknown
Speed
Unknown
Apparent Right ascension
Unknown
Apparent Declination
Unknown
Sunlit
N/A
Visualization observer readout
Local Sidereal Time
07:10:40
Azimuth
Unknown
Elevation
Unknown
Doppler factor
Unknown
Orbital elements
Apogee altitude
1,434.605 km
Perigee altitude
1,223.083 km
Semi-major axis
7,706.981 km
Eccentricity
0.01372
Inclination
102.7473°
RAAN
14.5481°
Arg. of periapsis
89.0951°
True anomaly
63.43411°
Mean anomaly
62.0341°
Eccentric anomaly
62.73299°
Mean motion
3.20787 °/min
Orbital period
112.22 mins
BSTAR
0.014427
Loading maneuver chart data...
Computing Atmospheric mass density...
Loading historical data...
Loading historical data...
Loading historical data...
Loading historical data...
Loading historical data...
Loading historical data...
Loading historical data...

Documentation

Showing up to 5 results
|